Date String (YYYY-MM-DD hh:mm:ss) UTC,Instrument flags,Ambient pressure (hPa),Sample flow (lpm),Bypass flow (lpm),Sample temperature (°C),Ambient temperature (°C),ASC tube jacket temperature (°C),LED temperature (°C),Box temperature (°C),Sample RH (%),Span deviation,Mass concentration (μg/m³),Mass concentration (μg/m³),Mass concentration (μg/m³)
DateTimeUTC,F1_M11,P_M11,Q1_M11,Q2_M11,T1_M11,T2_M11,T3_M11,T4_M11,T5_M11,U1_M11,ZSPAN_M11,X2_M11,X0_M11,X1_M11
2023-01-18 17:00:00,,0815.9,4.99,0.00,22.8,22.7,00.0,31.4,24.8,14.9,0000.0,0003.83,0004.64,0003.77
2023-01-18 17:01:00,,0815.9,4.99,0.00,22.8,22.3,00.0,31.4,24.7,14.9,0000.0,0003.70,0004.71,0003.64
2023-01-18 17:02:00,,0816.0,5.00,0.00,22.8,22.1,00.0,31.5,24.7,14.8,0000.0,0003.56,0004.66,0003.50
2023-01-18 17:03:00,,0815.9,4.99,0.00,22.8,21.8,00.0,31.5,24.7,14.8,0000.0,0003.47,0004.51,0003.40
2023-01-18 17:04:00,,0815.9,5.00,0.00,22.8,21.7,00.0,31.5,24.6,14.8,0000.0,0003.38,0004.36,0003.32
2023-01-18 17:05:00,,0815.9,4.99,0.00,22.8,21.5,00.0,31.5,24.6,14.8,0000.0,0003.28,0004.17,0003.22
2023-01-18 17:06:00,,0815.9,5.01,0.00,22.8,21.4,00.0,31.5,24.6,14.8,0000.0,0003.17,0003.96,0003.12
2023-01-18 17:07:00,,0815.9,5.01,0.00,22.8,21.3,00.0,31.5,24.5,14.8,0000.0,0002.98,0003.70,0002.90
2023-01-18 17:08:00,,0815.9,5.00,0.00,22.8,21.3,00.0,31.5,24.5,14.8,0000.0,0002.80,0003.53,0002.71
2023-01-18 17:09:00,,0816.0,5.01,0.00,22.7,21.2,00.0,31.5,24.5,14.8,0000.0,0002.63,0003.35,0002.54
2023-01-18 17:10:00,,0815.9,5.01,0.00,22.7,21.2,00.0,31.5,24.5,14.9,0000.0,0002.51,0003.29,0002.42
2023-01-18 17:11:00,,0815.9,4.99,0.00,22.7,21.1,00.0,31.5,24.5,14.8,0000.0,0002.31,0003.10,0002.23
2023-01-18 17:12:00,,0815.9,4.99,0.00,22.7,21.1,00.0,31.5,24.4,14.8,0000.0,0002.16,0002.67,0002.09
2023-01-18 17:13:00,,0816.0,5.00,0.00,22.7,21.0,00.0,31.5,24.4,14.8,0000.0,0002.02,0002.24,0001.95
2023-01-18 17:14:00,,0816.0,5.00,0.00,22.6,21.0,00.0,31.5,24.4,14.9,0000.0,0001.83,0002.03,0001.78
2023-01-18 17:15:00,,0816.0,5.00,0.00,22.6,21.0,00.0,31.5,24.4,14.9,0000.0,0001.71,0001.94,0001.66
2023-01-18 17:16:00,,0816.0,5.00,0.00,22.6,21.4,00.0,31.4,24.5,15.0,0000.0,0001.60,0002.57,0001.54
2023-01-18 17:17:00,,0816.0,5.00,0.00,22.7,22.4,00.0,31.4,24.7,14.9,0000.0,0001.51,0003.16,0001.44
2023-01-18 17:18:00,,0816.0,5.00,0.00,22.8,22.9,00.0,31.5,24.8,14.9,0000.0,0001.46,0003.36,0001.36
2023-01-18 17:19:00,,0816.0,4.98,0.00,22.8,22.5,00.0,31.5,24.8,14.9,0000.0,0001.38,0004.19,0001.28
2023-01-18 17:20:00,,0816.0,5.02,0.00,22.8,22.1,00.0,31.5,24.7,14.9,0000.0,0001.29,0004.10,0001.19
2023-01-18 17:21:00,,0815.9,5.01,0.00,22.8,21.8,00.0,31.5,24.6,14.9,0000.0,0001.22,0004.44,0001.10
2023-01-18 17:22:00,,0815.9,5.00,0.00,22.8,21.6,00.0,31.5,24.6,14.9,0000.0,0001.23,0004.64,0001.09
2023-01-18 17:23:00,,0815.9,4.99,0.00,22.8,21.4,00.0,31.5,24.5,14.9,0000.0,0001.24,0004.99,0001.08
2023-01-18 17:24:00,,0816.0,5.00,0.00,22.7,21.2,00.0,31.5,24.4,14.9,0000.0,0001.27,0005.12,0001.09
2023-01-18 17:25:00,,0815.9,5.00,0.00,22.7,21.1,00.0,31.5,24.4,15.0,0000.0,0001.30,0006.67,0001.09
2023-01-18 17:26:00,,0815.9,5.00,0.00,22.7,21.4,00.0,31.5,24.5,15.0,0000.0,0001.29,0006.84,0001.10
2023-01-18 17:27:00,,0816.0,4.99,0.00,22.8,22.4,00.0,31.5,24.7,15.0,0000.0,0001.32,0006.25,0001.09
2023-01-18 17:28:00,,0816.0,4.99,0.00,22.9,23.0,00.0,31.5,24.8,14.9,0000.0,0001.33,0005.61,0001.08
2023-01-18 17:29:00,,0816.0,5.00,0.00,22.9,22.6,00.0,31.6,24.8,14.9,0000.0,0001.32,0005.35,0001.08
2023-01-18 17:30:00,,0815.9,5.01,0.00,22.9,22.2,00.0,31.6,24.7,14.8,0000.0,0001.32,0004.49,0001.08
2023-01-18 17:31:00,,0815.9,4.99,0.00,22.9,21.9,00.0,31.6,24.6,14.8,0000.0,0001.32,0004.90,0001.07
2023-01-18 17:32:00,,0815.9,5.00,0.00,22.9,21.6,00.0,31.6,24.6,14.9,0000.0,0001.29,0004.57,0001.06
2023-01-18 17:33:00,,0815.9,4.99,0.00,22.8,21.4,00.0,31.6,24.5,14.9,0000.0,0001.26,0004.33,0001.05
2023-01-18 17:34:00,,0815.9,5.00,0.00,22.8,21.3,00.0,31.6,24.5,14.9,0000.0,0001.23,0003.95,0001.05
2023-01-18 17:35:00,,0815.9,4.99,0.00,22.8,21.5,00.0,31.6,24.5,15.0,0000.0,0001.21,0003.81,0001.04
2023-01-18 17:36:00,,0816.0,5.00,0.00,22.9,22.5,00.0,31.6,24.8,15.0,0000.0,0001.19,0002.19,0001.04
2023-01-18 17:37:00,,0816.0,5.00,0.00,23.0,23.2,00.0,31.6,24.9,14.9,0000.0,0001.21,0002.19,0001.03
2023-01-18 17:38:00,,0816.0,4.99,0.00,23.0,22.8,00.0,31.6,24.9,14.8,0000.0,0001.18,0002.41,0001.03
2023-01-18 17:39:00,,0816.0,5.01,0.00,23.0,22.3,00.0,31.7,24.8,14.8,0000.0,0001.14,0003.79,0001.01
2023-01-18 17:40:00,,0816.0,4.99,0.00,23.0,22.0,00.0,31.7,24.7,14.8,0000.0,0001.12,0005.13,0001.00
2023-01-18 17:41:00,,0816.0,5.01,0.00,22.9,21.6,00.0,31.7,24.6,14.8,0000.0,0001.11,0005.56,0000.98
2023-01-18 17:42:00,,0816.0,5.00,0.00,22.9,21.4,00.0,31.7,24.6,14.8,0000.0,0001.10,0005.30,0000.97
2023-01-18 17:43:00,,0816.0,5.01,0.00,22.9,21.3,00.0,31.7,24.5,14.9,0000.0,0001.08,0005.15,0000.95
2023-01-18 17:44:00,,0816.1,5.02,0.00,22.9,22.1,00.0,31.7,24.7,14.9,0000.0,0001.13,0005.70,0000.95
2023-01-18 17:45:00,,0816.1,5.00,0.00,23.0,23.1,00.0,31.7,24.9,14.9,0000.0,0001.15,0005.98,0000.93
2023-01-18 17:46:00,,0816.1,4.98,0.00,23.1,23.2,00.0,31.7,25.0,14.8,0000.0,0001.14,0006.08,0000.92
2023-01-18 17:47:00,,0816.0,4.98,0.00,23.1,22.7,00.0,31.7,24.9,14.8,0000.0,0001.14,0006.09,0000.91
2023-01-18 17:48:00,,0816.1,5.01,0.00,23.1,22.3,00.0,31.7,24.9,14.8,0000.0,0001.12,0006.92,0000.90
2023-01-18 17:49:00,,0816.0,5.00,0.00,23.0,22.0,00.0,31.8,24.8,14.8,0000.0,0001.13,0007.18,0000.89
2023-01-18 17:50:00,,0816.0,5.00,0.00,23.0,21.7,00.0,31.8,24.7,14.8,0000.0,0001.14,0005.74,0000.89
2023-01-18 17:51:00,,0816.1,5.00,0.00,23.0,21.5,00.0,31.8,24.6,14.8,0000.0,0001.14,0004.53,0000.89
2023-01-18 17:52:00,,0816.0,4.99,0.00,22.9,21.3,00.0,31.7,24.6,14.8,0000.0,0001.14,0004.56,0000.88
2023-01-18 17:53:00,,0816.0,5.00,0.00,22.9,21.2,00.0,31.7,24.5,14.9,0000.0,0001.14,0004.87,0000.88
2023-01-18 17:54:00,,0816.0,5.00,0.00,22.9,21.7,00.0,31.7,24.7,14.8,0000.0,0001.17,0006.06,0000.88
2023-01-18 17:55:00,,0816.0,5.00,0.00,23.0,22.8,00.0,31.7,24.9,14.6,0000.0,0001.09,0005.55,0000.84
2023-01-18 17:56:00,,0815.9,4.99,0.00,23.1,23.0,00.0,31.8,25.0,14.4,0000.0,0001.01,0005.41,0000.81
2023-01-18 17:57:00,,0815.9,4.99,0.00,23.1,22.6,00.0,31.8,24.9,14.3,0000.0,0000.97,0005.38,0000.77
2023-01-18 17:58:00,,0815.9,5.03,0.00,23.1,22.1,00.0,31.8,24.8,14.2,0000.0,0000.92,0005.40,0000.73
2023-01-18 17:59:00,,0815.9,4.99,0.00,23.0,21.7,00.0,31.8,24.7,14.2,0000.0,0000.88,0004.70,0000.69
